This is the latest recevied weather packets stored in our database for station/object KB2EAR-13. If no packets are shown the sender has not sent any weather packets the latest 10 day(s).
| Time | Temp. | Humidity | Pressure | Rain* | Wind** | Luminosity | Snow |
|---|---|---|---|---|---|---|---|
| 1788426328 | - | - | - | 1.27 mm | - | - | - |
| 1788426079 | 20.56° C | - | - | 1.27 mm | - | - | - |
| 1788426035 | 20.56° C | 98% | 1015.8 hPa | 1.27 mm | - | - | - |
| 1788425716 | 20.56° C | 98% | 1015.8 hPa | 1.27 mm | - | - | - |
| 1788425416 | 20.56° C | 98% | 1015.9 hPa | 1.02 mm | - | - | - |
| 1788425116 | 20.56° C | 98% | 1016 hPa | 1.02 mm | - | - | - |
| 1788424817 | 20.56° C | 98% | 1016.8 hPa | 0.76 mm | - | - | - |
| 1788424516 | 20.56° C | 98% | 1016.9 hPa | 0.76 mm | - | - | - |
| 1788424216 | 20.56° C | 98% | 1017.7 hPa | 0.51 mm | - | - | - |
| 1788423916 | 20.56° C | 97% | 1017.9 hPa | 0.51 mm | - | - | - |
| 1788423616 | 20.56° C | 97% | 1018.1 hPa | 0.51 mm | - | - | - |
| 1788423316 | 20.56° C | 97% | 1018.1 hPa | 0.51 mm | - | - | - |
| 1788423017 | 20.56° C | 97% | 1018.2 hPa | 0.51 mm | - | - | - |
| 1788422716 | 20.56° C | 97% | 1018 hPa | 0.51 mm | - | - | - |
| 1788422416 | 20.56° C | 97% | 1017.9 hPa | 0.51 mm | - | - | - |
| 1788422116 | 20.56° C | 97% | 1017.6 hPa | 0.76 mm | - | - | - |
| 1788421816 | 20.56° C | 97% | 1017.2 hPa | 1.02 mm | - | - | - |
| 1788421516 | 20.56° C | 97% | 1017.5 hPa | 1.27 mm | - | - | - |
| 1788421216 | 20.56° C | 97% | 1017.5 hPa | 1.52 mm | - | - | - |
| 1788420916 | 20.56° C | 97% | 1017.1 hPa | 1.78 mm | - | - | - |
| 1788420616 | 20.56° C | 97% | 1017.2 hPa | 2.03 mm | - | - | - |
| 1788420316 | 20.56° C | 97% | 1017.1 hPa | 2.03 mm | - | - | - |
| 1788420016 | 20° C | 97% | 1017.1 hPa | 2.03 mm | - | - | - |
| 1788419716 | 20° C | 97% | 1017.1 hPa | 2.03 mm | - | - | - |
| 1788419416 | 20° C | 97% | 1016.8 hPa | 2.54 mm | - | - | - |
* Rain latest hour (hover to see other rain measurements)
** Current wind speed in m/s (hover to see current wind gust speed)